{"data":{"norad_id":57886,"intl_designator":"2023-145A","name":"YAOGAN-39 02A","alt_names":[],"object_type":"PAYLOAD","status":"ACTIVE","operator":null,"country":"PRC","launch_date":"2023-09-17","launch_site_code":"XICLF","launch_vehicle":null,"mission":null,"orbit_class":"UNKNOWN","rcs_meters":null,"size_class":null,"mass_kg":null,"dimensions":null,"purposes":[],"wikipedia_slug":null,"has_3d_model":false,"image_url":null,"decayed_at":null,"tle_current":{"epoch":"2026-05-24T16:00:39.232800Z","epoch_age_seconds":97732,"freshness":"FRESH","line1":"1 57886U 23145A   26144.66712075  .00009009  00000+0  37289-3 0  9999","line2":"2 57886  35.0034 348.3724 0001744  94.8423 265.2491 15.23194640149589","mean_motion":15.2319464,"eccentricity":0.0001744,"inclination_deg":35.0034,"raan_deg":348.3724,"arg_perigee_deg":94.8423,"mean_anomaly_deg":265.2491,"bstar":0.00037289,"rev_number":14958,"period_min":94.538147797054,"perigee_km":495.01304986152,"apogee_km":497.41082277051,"semimajor_km":6874.348936316,"source":"CELESTRAK","updated_at":"2026-05-25T13:38:00.320196Z"}}}